TimeCDT,TemperatureF,Dew PointF,Humidity,Sea Level PressureIn,VisibilityMPH,Wind Direction,Wind SpeedMPH,Gust SpeedMPH,PrecipitationIn,Events,Conditions,WindDirDegrees,DateUTC
12:56 AM,63.0,54.0,72,29.96,10.0,North,4.6,-,N/A,,Clear,360,2012-10-16 05:56:00
1:56 AM,60.1,53.1,78,29.96,10.0,NNW,4.6,-,N/A,,Clear,340,2012-10-16 06:56:00
2:56 AM,57.9,52.0,81,29.96,10.0,NNW,3.5,-,N/A,,Clear,340,2012-10-16 07:56:00
3:56 AM,57.0,52.0,83,29.95,10.0,North,5.8,-,N/A,,Clear,360,2012-10-16 08:56:00
4:56 AM,55.0,51.1,86,29.96,10.0,North,5.8,-,N/A,,Clear,350,2012-10-16 09:56:00
5:56 AM,54.0,51.1,90,29.96,10.0,North,3.5,-,N/A,,Clear,10,2012-10-16 10:56:00
6:04 AM,53.6,50.0,88,29.95,10.0,NNE,3.5,-,N/A,,Clear,20,2012-10-16 11:04:00
6:56 AM,54.0,50.0,86,29.96,10.0,North,5.8,-,N/A,,Partly Cloudy,10,2012-10-16 11:56:00
7:56 AM,61.0,53.1,75,29.98,10.0,NNE,4.6,-,N/A,,Scattered Clouds,30,2012-10-16 12:56:00
8:56 AM,68.0,51.1,55,29.99,10.0,ENE,8.1,-,N/A,,Mostly Cloudy,60,2012-10-16 13:56:00
9:56 AM,69.1,51.1,53,30.00,10.0,ENE,10.4,-,N/A,,Mostly Cloudy,60,2012-10-16 14:56:00
10:56 AM,72.0,53.1,51,29.99,10.0,ENE,8.1,-,N/A,,Mostly Cloudy,60,2012-10-16 15:56:00
11:56 AM,73.9,50.0,43,29.98,10.0,ENE,8.1,-,N/A,,Mostly Cloudy,60,2012-10-16 16:56:00
12:56 PM,73.9,48.0,40,29.96,10.0,East,6.9,-,N/A,,Mostly Cloudy,100,2012-10-16 17:56:00
1:56 PM,75.0,46.9,37,29.93,10.0,Calm,Calm,-,N/A,,Mostly Cloudy,0,2012-10-16 18:56:00
2:56 PM,75.0,48.9,40,29.91,10.0,East,5.8,-,N/A,,Mostly Cloudy,100,2012-10-16 19:56:00
3:56 PM,75.0,48.9,40,29.88,10.0,Calm,Calm,-,N/A,,Mostly Cloudy,0,2012-10-16 20:56:00
4:56 PM,73.0,51.1,46,29.88,10.0,SSW,3.5,-,N/A,,Mostly Cloudy,210,2012-10-16 21:56:00
5:56 PM,68.0,55.0,63,29.87,10.0,Calm,Calm,-,N/A,,Mostly Cloudy,0,2012-10-16 22:56:00
6:56 PM,64.0,55.9,75,29.87,10.0,Calm,Calm,-,N/A,,Mostly Cloudy,0,2012-10-16 23:56:00
7:56 PM,64.9,53.1,65,29.87,10.0,NNW,4.6,-,N/A,,Mostly Cloudy,340,2012-10-17 00:56:00
8:56 PM,62.1,53.1,72,29.89,10.0,NNE,3.5,-,N/A,,Mostly Cloudy,20,2012-10-17 01:56:00
9:56 PM,63.0,54.0,72,29.90,10.0,Calm,Calm,-,N/A,,Mostly Cloudy,0,2012-10-17 02:56:00
10:56 PM,63.0,54.0,72,29.90,10.0,NE,3.5,-,N/A,,Overcast,40,2012-10-17 03:56:00
11:56 PM,61.0,55.9,83,29.89,10.0,Calm,Calm,-,N/A,,Clear,0,2012-10-17 04:56:00